Погода в Наркевичах

Украина / Хмельницкая область     49°31′00″N   26°38′25″E
темп.,
°C
ветер,
м/с
пор.,
м/с
влажн.,
%
обл.,
%
осадки,
мм/ч
давл.,
гПа
погр.,
м
13 июня, вс
вс1300:00+13юз3692100 0.0 101098
03:00+13юз3995100 0.0 1008205
06:00+13зюз3899100 3.4 1006338
09:00+13сз61294100 13.3 1009830
12:00+13сз81190100 2.0 1011870
15:00+16сз8963100 2.2 10111706
18:00+15сз81076100 0.3 10121205
21:00+11сз6118841 0.4 1013609
14 июня, пн
пн1400:00+11зсз4993100 0.0 1013515
03:00+11сз588991 0.1 1013561
06:00+11ссз5989100 0.1 1014710
09:00+12ссз6891100 0.7 1015721
12:00+11ссз6893100 0.3 1016690
15:00+12ссз5790100 0.3 1017603
18:00+12ссз5688100 0.1 1017665
21:00+11ссз4993100 0.1 1017403
15 июня, вт
вт1500:00+12ссз51194100 0.3 1017424
03:00+11ссз4994100 0.3 1018322
06:00+11ссз4993100 0.0 1018313
09:00+13с578664 0.0 1018410
12:00+18ссз567449 0.0 1017853
15:00+19ссз677273 0.1 10171135
18:00+19ссз587694 0.1 1016669
21:00+16ссз41087100 0.1 1016302
16 июня, ср
ср1600:00+13ссз4109199 0.0 1017179
03:00+11ссз499588 0.0 1017166
06:00+12ссз499699 0.0 1017221
09:00+17с578434 0.0 1017560
12:00+19с6773100 0.1 10171137
15:00+20с677098 0.1 10171281
18:00+20с68769 0.5 10171065
21:00+17с36905 0.9 1018135
17 июня, чт
чт1700:00+14с37941 0.0 1020133
03:00+12с48922 0.0 1020142
06:00+12с38967 0.0 1021156
09:00+18ссв58775 0.0 1021457
12:00+21ссв67666 0.0 10211077
15:00+22св676439 0.1 10201406
18:00+22св56680 0.0 10211364
21:00+17ссв47830 0.0 1021133